| time (UTC) | temp F | wind direction | speed knots | gust knots | rain 1hr in | rain 24hr in | rain mn in | humidity % | barometer mb |
| 20260902060833 | 51 | 128 | 0.0 | 0.0 | 0.00 | 0.00 | 0.00 | 91 | 1021.7 |
| 20260902060330 | 51 | 128 | 0.0 | 0.0 | 0.00 | 0.00 | 0.00 | 90 | 1021.7 |
| 20260902055832 | 52 | 128 | 0.0 | 0.9 | 0.00 | 0.00 | 0.00 | 90 | 1021.6 |
| 20260902055335 | 52 | 128 | 0.0 | 0.9 | 0.00 | 0.00 | 0.00 | 91 | 1021.5 |
| 20260902055330 | 52 | 128 | 0.0 | 0.9 | 0.00 | 0.00 | 0.00 | 91 | 1021.6 |
| 20260902054331 | 52 | 128 | 0.0 | 0.9 | 0.00 | 0.00 | 0.00 | 90 | 1021.5 |
| 20260902053830 | 52 | 129 | 0.0 | 0.0 | 0.00 | 0.00 | 0.00 | 90 | 1021.4 |
| 20260902053328 | 52 | 128 | 0.0 | 0.0 | 0.00 | 0.00 | 0.00 | 90 | 1021.5 |
| 20260902052828 | 53 | 128 | 0.0 | 0.0 | 0.00 | 0.00 | 0.00 | 90 | 1021.6 |
| 20260902052326 | 53 | 128 | 0.0 | 0.0 | 0.00 | 0.00 | 0.00 | 91 | 1021.5 |
| 20260902051829 | 53 | 128 | 0.0 | 0.0 | 0.00 | 0.00 | 0.00 | 90 | 1021.5 |
| 20260902051325 | 53 | 128 | 0.0 | 0.0 | 0.00 | 0.00 | 0.00 | 91 | 1021.5 |
| 20260902050826 | 54 | 128 | 0.0 | 0.0 | 0.00 | 0.00 | 0.00 | 91 | 1021.5 |
| 20260902050552 | 54 | 128 | 0.0 | 0.0 | 0.00 | 0.00 | 0.00 | 91 | 1021.4 |
| 20260902050439 | 54 | 128 | 0.0 | 0.0 | 0.00 | 0.00 | 0.00 | 91 | 1021.4 |
| 20260902045324 | 54 | 128 | 0.0 | 1.7 | 0.00 | 0.00 | 0.00 | 91 | 1021.4 |
| 20260902044823 | 54 | 128 | 0.0 | 1.7 | 0.00 | 0.00 | 0.00 | 91 | 1021.4 |
| 20260902044322 | 53 | 128 | 0.0 | 1.7 | 0.00 | 0.00 | 0.00 | 91 | 1021.2 |
| 20260902043821 | 53 | 128 | 0.0 | 1.7 | 0.00 | 0.00 | 0.00 | 91 | 1021.1 |
| 20260902043322 | 53 | 128 | 0.0 | 0.0 | 0.00 | 0.00 | 0.00 | 91 | 1021.1 |
| 20260902042820 | 53 | 128 | 0.0 | 0.0 | 0.00 | 0.00 | 0.00 | 91 | 1021.2 |
| 20260902042320 | 53 | 128 | 0.0 | 0.0 | 0.00 | 0.00 | 0.00 | 91 | 1021.1 |
| 20260902041821 | 53 | 128 | 0.0 | 2.6 | 0.00 | 0.00 | 0.00 | 91 | 1021.1 |
| 20260902041320 | 53 | 128 | 0.0 | 2.6 | 0.00 | 0.00 | 0.00 | 90 | 1021.0 |
| 20260902040820 | 53 | 128 | 0.0 | 2.6 | 0.00 | 0.00 | 0.00 | 90 | 1021.0 |
| 20260902040322 | 54 | 128 | 0.9 | 2.6 | 0.00 | 0.00 | 0.00 | 91 | 1021.2 |
| 20260902040051 | 54 | 128 | 0.0 | 2.6 | 0.00 | 0.00 | 0.00 | 91 | 1021.1 |
| 20260902035320 | 53 | 136 | 0.0 | 1.7 | 0.00 | 0.00 | 0.00 | 91 | 1021.0 |
| 20260902034820 | 53 | 136 | 0.0 | 0.0 | 0.00 | 0.00 | 0.00 | 90 | 1020.9 |
| 20260902034318 | 53 | 136 | 0.0 | 0.0 | 0.00 | 0.00 | 0.00 | 90 | 1020.8 |
| 20260902033818 | 53 | 136 | 0.0 | 0.0 | 0.00 | 0.00 | 0.00 | 90 | 1020.7 |
| 20260902033318 | 52 | 136 | 0.0 | 0.0 | 0.00 | 0.00 | 0.00 | 90 | 1020.7 |
| 20260902033050 | 53 | 136 | 0.0 | 0.0 | 0.00 | 0.00 | 0.00 | 90 | 1020.7 |
| 20260902032320 | 53 | 136 | 0.0 | 0.0 | 0.00 | 0.00 | 0.00 | 90 | 1020.6 |
| 20260902031819 | 53 | 136 | 0.0 | 0.0 | 0.00 | 0.00 | 0.00 | 90 | 1020.6 |
| 20260902031318 | 53 | 136 | 0.0 | 0.0 | 0.00 | 0.00 | 0.00 | 90 | 1020.6 |
| 20260902030818 | 53 | 136 | 0.0 | 0.0 | 0.00 | 0.00 | 0.00 | 90 | 1020.5 |
| 20260902030318 | 53 | 136 | 0.0 | 0.9 | 0.00 | 0.00 | 0.00 | 90 | 1020.4 |
| 20260902025818 | 53 | 136 | 0.0 | 0.9 | 0.00 | 0.00 | 0.00 | 89 | 1020.5 |
| 20260902025317 | 53 | 136 | 0.0 | 0.9 | 0.00 | 0.00 | 0.00 | 89 | 1020.6 |
| 20260902024817 | 54 | 136 | 0.0 | 0.9 | 0.00 | 0.00 | 0.00 | 90 | 1020.7 |
| 20260902024316 | 54 | 136 | 0.0 | 0.0 | 0.00 | 0.00 | 0.00 | 90 | 1020.7 |
| 20260902023818 | 54 | 136 | 0.0 | 1.7 | 0.00 | 0.00 | 0.00 | 90 | 1020.6 |
| 20260902023317 | 54 | 136 | 0.0 | 1.7 | 0.00 | 0.00 | 0.00 | 90 | 1020.4 |
| 20260902023047 | 54 | 136 | 0.0 | 1.7 | 0.00 | 0.00 | 0.00 | 89 | 1020.4 |
| 20260902022549 | 54 | 136 | 0.0 | 1.7 | 0.00 | 0.00 | 0.00 | 89 | 1020.3 |
| 20260902022047 | 54 | 136 | 0.0 | 0.0 | 0.00 | 0.00 | 0.00 | 89 | 1020.1 |
| 20260902021316 | 54 | 136 | 0.0 | 0.0 | 0.00 | 0.00 | 0.00 | 89 | 1020.0 |
| 20260902020817 | 54 | 136 | 0.0 | 0.0 | 0.00 | 0.00 | 0.00 | 89 | 1020.0 |
| 20260902020316 | 54 | 136 | 0.0 | 0.0 | 0.00 | 0.00 | 0.00 | 89 | 1020.0 |
| 20260902015812 | 54 | 136 | 0.0 | 0.0 | 0.00 | 0.00 | 0.00 | 89 | 1020.0 |
| 20260902015310 | 54 | 136 | 0.0 | 0.0 | 0.00 | 0.00 | 0.00 | 89 | 1020.1 |
| 20260902014811 | 54 | 136 | 0.0 | 0.0 | 0.00 | 0.00 | 0.00 | 89 | 1020.1 |
| 20260902014311 | 54 | 136 | 0.0 | 0.0 | 0.00 | 0.00 | 0.00 | 89 | 1020.1 |
| 20260902013812 | 54 | 136 | 0.0 | 0.0 | 0.00 | 0.00 | 0.00 | 89 | 1020.2 |
| 20260902013311 | 55 | 136 | 0.0 | 0.0 | 0.00 | 0.00 | 0.00 | 89 | 1020.2 |
| 20260902012809 | 55 | 136 | 0.0 | 0.0 | 0.00 | 0.00 | 0.00 | 89 | 1020.1 |
| 20260902012309 | 55 | 136 | 0.0 | 0.0 | 0.00 | 0.00 | 0.00 | 89 | 1020.1 |
| 20260902011809 | 55 | 136 | 0.0 | 0.0 | 0.00 | 0.00 | 0.00 | 89 | 1020.1 |
| 20260902011546 | 55 | 136 | 0.0 | 0.0 | 0.00 | 0.00 | 0.00 | 88 | 1020.1 |
| 20260902010807 | 55 | 136 | 0.0 | 0.0 | 0.00 | 0.00 | 0.00 | 88 | 1020.1 |
| 20260902010307 | 55 | 136 | 0.0 | 0.0 | 0.00 | 0.00 | 0.00 | 88 | 1020.1 |
| 20260902005806 | 55 | 136 | 0.0 | 0.0 | 0.00 | 0.00 | 0.00 | 88 | 1020.1 |
| 20260902005306 | 56 | 136 | 0.0 | 0.0 | 0.00 | 0.00 | 0.00 | 88 | 1020.0 |
| 20260902004805 | 56 | 136 | 0.0 | 0.0 | 0.00 | 0.00 | 0.00 | 89 | 1020.1 |
| 20260902004307 | 56 | 136 | 0.0 | 0.9 | 0.00 | 0.00 | 0.00 | 88 | 1020.2 |
| 20260902003807 | 56 | 136 | 0.0 | 0.9 | 0.00 | 0.00 | 0.00 | 88 | 1020.2 |
| 20260902003307 | 56 | 136 | 0.0 | 0.9 | 0.00 | 0.00 | 0.00 | 88 | 1020.1 |
| 20260902002806 | 56 | 136 | 0.0 | 0.9 | 0.00 | 0.00 | 0.00 | 88 | 1020.1 |
| 20260902002307 | 56 | 136 | 0.0 | 0.9 | 0.00 | 0.00 | 0.00 | 88 | 1020.0 |
| 20260902001804 | 56 | 136 | 0.0 | 0.9 | 0.00 | 0.00 | 0.00 | 88 | 1020.0 |
| 20260902001305 | 57 | 136 | 0.0 | 0.9 | 0.00 | 0.00 | 0.00 | 87 | 1020.1 |
| 20260902000804 | 57 | 136 | 0.0 | 0.9 | 0.00 | 0.00 | 0.00 | 87 | 1020.1 |
| 20260902000305 | 57 | 136 | 0.0 | 0.0 | 0.00 | 0.00 | 0.00 | 87 | 1020.0 |
| 20260901235805 | 57 | 136 | 0.0 | 0.0 | 0.00 | 0.00 | 0.00 | 86 | 1020.0 |
| 20260901235307 | 57 | 136 | 0.0 | 0.0 | 0.00 | 0.00 | 0.00 | 86 | 1020.1 |
| 20260901234803 | 58 | 136 | 0.0 | 0.0 | 0.00 | 0.00 | 0.00 | 86 | 1020.0 |
| 20260901234304 | 58 | 136 | 0.0 | 0.0 | 0.00 | 0.00 | 0.00 | 86 | 1020.0 |
| 20260901233804 | 58 | 136 | 0.0 | 0.0 | 0.00 | 0.00 | 0.00 | 86 | 1019.9 |
| 20260901233538 | 58 | 136 | 0.0 | 0.0 | 0.00 | 0.00 | 0.00 | 86 | 1019.8 |
| 20260901232802 | 58 | 136 | 0.0 | 1.7 | 0.00 | 0.00 | 0.00 | 85 | 1019.8 |
| 20260901232306 | 59 | 136 | 0.0 | 1.7 | 0.00 | 0.00 | 0.00 | 85 | 1019.7 |
| 20260901231802 | 59 | 136 | 0.0 | 1.7 | 0.00 | 0.00 | 0.00 | 84 | 1019.7 |
| 20260901231301 | 59 | 136 | 0.9 | 1.7 | 0.00 | 0.00 | 0.00 | 84 | 1019.6 |
| 20260901230802 | 59 | 136 | 0.0 | 1.7 | 0.00 | 0.00 | 0.00 | 84 | 1019.6 |
| 20260901230300 | 60 | 138 | 0.0 | 0.0 | 0.00 | 0.00 | 0.00 | 83 | 1019.5 |
| 20260901225800 | 60 | 142 | 0.0 | 0.0 | 0.00 | 0.00 | 0.00 | 83 | 1019.5 |
| 20260901225300 | 60 | 144 | 0.0 | 0.0 | 0.00 | 0.00 | 0.00 | 82 | 1019.4 |
| 20260901224800 | 60 | 143 | 0.0 | 0.0 | 0.00 | 0.00 | 0.00 | 82 | 1019.3 |
| 20260901224300 | 61 | 144 | 0.0 | 0.0 | 0.00 | 0.00 | 0.00 | 82 | 1019.3 |
| 20260901223759 | 61 | 149 | 0.0 | 1.7 | 0.00 | 0.00 | 0.00 | 81 | 1019.4 |
| 20260901223302 | 62 | 149 | 0.0 | 1.7 | 0.00 | 0.00 | 0.00 | 81 | 1019.3 |
| 20260901222759 | 62 | 143 | 0.0 | 1.7 | 0.00 | 0.00 | 0.00 | 80 | 1019.3 |
| 20260901222531 | 62 | 146 | 0.0 | 2.6 | 0.00 | 0.00 | 0.00 | 80 | 1019.3 |
| 20260901221801 | 62 | 138 | 0.0 | 2.6 | 0.00 | 0.00 | 0.00 | 80 | 1019.3 |
| 20260901221300 | 62 | 137 | 0.0 | 2.6 | 0.00 | 0.00 | 0.00 | 80 | 1019.3 |
| 20260901220801 | 62 | 137 | 0.9 | 2.6 | 0.00 | 0.00 | 0.00 | 80 | 1019.4 |
| 20260901220300 | 62 | 136 | 0.9 | 4.3 | 0.00 | 0.00 | 0.00 | 80 | 1019.3 |
| 20260901215801 | 62 | 136 | 0.9 | 4.3 | 0.00 | 0.00 | 0.00 | 80 | 1019.2 |
| 20260901215300 | 62 | 136 | 1.7 | 5.2 | 0.00 | 0.00 | 0.00 | 80 | 1019.1 |
| 20260901214801 | 62 | 194 | 2.6 | 5.2 | 0.00 | 0.00 | 0.00 | 81 | 1019.1 |
| 20260901214300 | 62 | 171 | 2.6 | 5.2 | 0.00 | 0.00 | 0.00 | 80 | 1019.0 |
| 20260901213800 | 62 | 190 | 1.7 | 5.2 | 0.00 | 0.00 | 0.00 | 81 | 1018.9 |
| 20260901213302 | 62 | 186 | 1.7 | 3.5 | 0.00 | 0.00 | 0.00 | 82 | 1018.9 |
| 20260901212801 | 62 | 185 | 1.7 | 5.2 | 0.00 | 0.00 | 0.00 | 82 | 1019.0 |
| 20260901212300 | 62 | 186 | 2.6 | 5.2 | 0.00 | 0.00 | 0.00 | 81 | 1018.8 |
| 20260901211800 | 62 | 160 | 2.6 | 5.2 | 0.00 | 0.00 | 0.00 | 81 | 1018.9 |
| 20260901211530 | 63 | 190 | 2.6 | 5.2 | 0.00 | 0.00 | 0.00 | 81 | 1018.9 |
| 20260901211030 | 63 | 200 | 2.6 | 5.2 | 0.00 | 0.00 | 0.00 | 80 | 1019.0 |
| 20260901210259 | 63 | 169 | 2.6 | 5.2 | 0.00 | 0.00 | 0.00 | 79 | 1018.9 |
| 20260901205801 | 64 | 192 | 2.6 | 6.1 | 0.00 | 0.00 | 0.00 | 78 | 1019.0 |
| 20260901205300 | 64 | 188 | 3.5 | 7.0 | 0.00 | 0.00 | 0.00 | 76 | 1019.0 |
| 20260901204800 | 65 | 195 | 2.6 | 7.0 | 0.00 | 0.00 | 0.00 | 74 | 1019.0 |
| 20260901204301 | 65 | 111 | 1.7 | 6.1 | 0.00 | 0.00 | 0.00 | 75 | 1018.9 |
| 20260901203758 | 65 | 180 | 0.9 | 4.3 | 0.00 | 0.00 | 0.00 | 76 | 1018.9 |
| 20260901203255 | 65 | 50 | 0.9 | 4.3 | 0.00 | 0.00 | 0.00 | 76 | 1018.9 |
| 20260901202756 | 65 | 50 | 0.9 | 4.3 | 0.00 | 0.00 | 0.00 | 76 | 1018.9 |
| 20260901202256 | 65 | 75 | 0.0 | 3.5 | 0.00 | 0.00 | 0.00 | 77 | 1018.7 |
| 20260901201755 | 65 | 77 | 0.9 | 3.5 | 0.00 | 0.00 | 0.00 | 77 | 1018.7 |
| 20260901201527 | 65 | 77 | 0.9 | 3.5 | 0.00 | 0.00 | 0.00 | 76 | 1018.8 |
| 20260901201027 | 65 | 179 | 0.9 | 3.5 | 0.00 | 0.00 | 0.00 | 76 | 1019.0 |
| 20260901200257 | 65 | 188 | 1.7 | 3.5 | 0.00 | 0.00 | 0.00 | 77 | 1019.1 |
| 20260901195756 | 65 | 186 | 0.9 | 3.5 | 0.00 | 0.00 | 0.00 | 77 | 1019.2 |
| 20260901195253 | 65 | 59 | 0.9 | 3.5 | 0.00 | 0.00 | 0.00 | 76 | 1019.2 |
| 20260901194753 | 66 | 58 | 1.7 | 6.1 | 0.00 | 0.00 | 0.00 | 75 | 1019.1 |
| 20260901194252 | 66 | 138 | 1.7 | 6.1 | 0.00 | 0.00 | 0.00 | 74 | 1019.1 |
| 20260901194023 | 66 | 162 | 1.7 | 6.1 | 0.00 | 0.00 | 0.00 | 74 | 1018.9 |
| 20260901193252 | 66 | 188 | 1.7 | 6.1 | 0.00 | 0.00 | 0.00 | 74 | 1019.0 |
| 20260901192751 | 66 | 181 | 2.6 | 7.0 | 0.00 | 0.00 | 0.00 | 72 | 1019.0 |
| 20260901192252 | 68 | 181 | 1.7 | 7.0 | 0.00 | 0.00 | 0.00 | 70 | 1018.9 |
| 20260901191752 | 69 | 199 | 0.9 | 6.1 | 0.00 | 0.00 | 0.00 | 69 | 1019.0 |
| 20260901191250 | 69 | 169 | 0.9 | 6.1 | 0.00 | 0.00 | 0.00 | 68 | 1018.9 |
| 20260901190750 | 69 | 188 | 0.9 | 3.5 | 0.00 | 0.00 | 0.00 | 69 | 1019.0 |
| 20260901190250 | 68 | 252 | 0.9 | 3.5 | 0.00 | 0.00 | 0.00 | 70 | 1018.9 |
| 20260901185749 | 68 | 334 | 0.9 | 3.5 | 0.00 | 0.00 | 0.00 | 70 | 1018.8 |
| 20260901185248 | 67 | 173 | 0.9 | 3.5 | 0.00 | 0.00 | 0.00 | 71 | 1018.8 |
| 20260901184746 | 67 | 51 | 0.9 | 3.5 | 0.00 | 0.00 | 0.00 | 72 | 1018.8 |
| 20260901184513 | 67 | 47 | 0.9 | 3.5 | 0.00 | 0.00 | 0.00 | 74 | 1018.9 |
| 20260901183744 | 67 | 48 | 0.9 | 3.5 | 0.00 | 0.00 | 0.00 | 74 | 1018.9 |
| 20260901183242 | 67 | 48 | 0.9 | 3.5 | 0.00 | 0.00 | 0.00 | 74 | 1019.0 |
| 20260901182739 | 67 | 46 | 0.9 | 3.5 | 0.00 | 0.00 | 0.00 | 75 | 1018.9 |
| 20260901182239 | 67 | 69 | 0.9 | 4.3 | 0.00 | 0.00 | 0.00 | 74 | 1018.8 |
| 20260901181739 | 67 | 64 | 0.9 | 4.3 | 0.00 | 0.00 | 0.00 | 74 | 1018.8 |
| 20260901181239 | 68 | 63 | 1.7 | 4.3 | 0.00 | 0.00 | 0.00 | 72 | 1018.9 |
| 20260901180741 | 68 | 63 | 1.7 | 4.3 | 0.00 | 0.00 | 0.00 | 71 | 1018.9 |
| 20260901180241 | 68 | 49 | 0.9 | 4.3 | 0.00 | 0.00 | 0.00 | 72 | 1018.8 |
| 20260901175740 | 68 | 63 | 0.0 | 3.5 | 0.00 | 0.00 | 0.00 | 73 | 1018.8 |
| 20260901175513 | 67 | 62 | 0.9 | 3.5 | 0.00 | 0.00 | 0.00 | 74 | 1018.9 |
| 20260901175011 | 67 | 63 | 0.9 | 3.5 | 0.00 | 0.00 | 0.00 | 74 | 1018.9 |
| 20260901174511 | 67 | 64 | 0.9 | 3.5 | 0.00 | 0.00 | 0.00 | 73 | 1019.0 |
| 20260901173739 | 67 | 47 | 0.9 | 3.5 | 0.00 | 0.00 | 0.00 | 73 | 1018.9 |
| 20260901173240 | 67 | 46 | 0.9 | 3.5 | 0.00 | 0.00 | 0.00 | 75 | 1018.9 |
| 20260901172740 | 67 | 46 | 1.7 | 5.2 | 0.00 | 0.00 | 0.00 | 75 | 1018.9 |
| 20260901172240 | 67 | 61 | 1.7 | 5.2 | 0.00 | 0.00 | 0.00 | 75 | 1018.9 |
| 20260901171740 | 67 | 51 | 1.7 | 5.2 | 0.00 | 0.00 | 0.00 | 74 | 1018.8 |
| 20260901171237 | 67 | 53 | 1.7 | 5.2 | 0.00 | 0.00 | 0.00 | 75 | 1018.8 |
| 20260901171010 | 66 | 55 | 0.9 | 3.5 | 0.00 | 0.00 | 0.00 | 75 | 1018.8 |
| 20260901170237 | 65 | 30 | 0.0 | 1.7 | 0.00 | 0.00 | 0.00 | 78 | 1018.8 |
| 20260901165740 | 65 | 37 | 0.0 | 1.7 | 0.00 | 0.00 | 0.00 | 77 | 1018.8 |
| 20260901165237 | 65 | 38 | 0.0 | 1.7 | 0.00 | 0.00 | 0.00 | 78 | 1018.8 |
| 20260901164738 | 65 | 37 | 0.9 | 3.5 | 0.00 | 0.00 | 0.00 | 76 | 1018.7 |
| 20260901164238 | 65 | 40 | 0.9 | 3.5 | 0.00 | 0.00 | 0.00 | 76 | 1018.7 |
| 20260901163738 | 66 | 39 | 0.9 | 3.5 | 0.00 | 0.00 | 0.00 | 75 | 1018.8 |
| 20260901163238 | 67 | 37 | 0.9 | 3.5 | 0.00 | 0.00 | 0.00 | 73 | 1018.8 |
| 20260901162737 | 67 | 50 | 0.9 | 3.5 | 0.00 | 0.00 | 0.00 | 69 | 1018.7 |
| 20260901162236 | 68 | 17 | 0.9 | 3.5 | 0.00 | 0.00 | 0.00 | 70 | 1018.8 |
| 20260901161736 | 67 | 355 | 1.7 | 3.5 | 0.00 | 0.00 | 0.00 | 71 | 1018.8 |
| 20260901161235 | 67 | 57 | 1.7 | 3.5 | 0.00 | 0.00 | 0.00 | 71 | 1018.9 |
| 20260901160736 | 67 | 332 | 1.7 | 3.5 | 0.00 | 0.00 | 0.00 | 73 | 1019.0 |
| 20260901160506 | 66 | 51 | 1.7 | 5.2 | 0.00 | 0.00 | 0.00 | 74 | 1019.0 |
| 20260901155735 | 65 | 58 | 0.9 | 5.2 | 0.00 | 0.00 | 0.00 | 77 | 1018.9 |
| 20260901155235 | 64 | 355 | 0.9 | 5.2 | 0.00 | 0.00 | 0.00 | 78 | 1019.0 |
| 20260901154736 | 64 | 52 | 0.9 | 5.2 | 0.00 | 0.00 | 0.00 | 79 | 1019.1 |
| 20260901154235 | 64 | 55 | 0.9 | 3.5 | 0.00 | 0.00 | 0.00 | 79 | 1019.0 |
| 20260901153736 | 64 | 155 | 0.9 | 4.3 | 0.00 | 0.00 | 0.00 | 78 | 1019.0 |
| 20260901153234 | 64 | 44 | 0.0 | 4.3 | 0.00 | 0.00 | 0.00 | 78 | 1018.9 |
| 20260901152736 | 65 | 66 | 0.9 | 4.3 | 0.00 | 0.00 | 0.00 | 76 | 1018.9 |
| 20260901152234 | 65 | 53 | 0.9 | 4.3 | 0.00 | 0.00 | 0.00 | 75 | 1018.9 |
| 20260901151733 | 65 | 32 | 0.9 | 5.2 | 0.00 | 0.00 | 0.00 | 75 | 1018.8 |
| 20260901151234 | 65 | 57 | 1.7 | 5.2 | 0.00 | 0.00 | 0.00 | 74 | 1018.9 |
| 20260901150733 | 65 | 50 | 1.7 | 5.2 | 0.00 | 0.00 | 0.00 | 74 | 1018.9 |
| 20260901150233 | 65 | 49 | 1.7 | 5.2 | 0.00 | 0.00 | 0.00 | 74 | 1018.8 |
| 20260901145733 | 65 | 46 | 1.7 | 5.2 | 0.00 | 0.00 | 0.00 | 73 | 1018.8 |
| 20260901145505 | 66 | 55 | 0.9 | 2.6 | 0.00 | 0.00 | 0.00 | 74 | 1018.8 |
| 20260901144735 | 66 | 60 | 0.0 | 2.6 | 0.00 | 0.00 | 0.00 | 75 | 1018.9 |
| 20260901144236 | 66 | 62 | 0.0 | 2.6 | 0.00 | 0.00 | 0.00 | 74 | 1018.8 |
| 20260901144232 | 65 | 60 | 0.0 | 2.6 | 0.00 | 0.00 | 0.00 | 74 | 1018.8 |
| 20260901143232 | 66 | 62 | 0.9 | 3.5 | 0.00 | 0.00 | 0.00 | 74 | 1018.8 |
| 20260901142733 | 66 | 62 | 0.0 | 3.5 | 0.00 | 0.00 | 0.00 | 73 | 1018.8 |
| 20260901142503 | 66 | 70 | 0.9 | 3.5 | 0.00 | 0.00 | 0.00 | 74 | 1018.9 |
| 20260901142000 | 66 | 70 | 0.9 | 3.5 | 0.00 | 0.00 | 0.00 | 74 | 1018.9 |
| 20260901141229 | 66 | 82 | 0.9 | 3.5 | 0.00 | 0.00 | 0.00 | 75 | 1018.9 |
| 20260901140732 | 66 | 175 | 0.9 | 2.6 | 0.00 | 0.00 | 0.00 | 76 | 1018.9 |
| 20260901140228 | 65 | 175 | 0.9 | 2.6 | 0.00 | 0.00 | 0.00 | 77 | 1018.9 |
| 20260901135729 | 64 | 186 | 0.9 | 4.3 | 0.00 | 0.00 | 0.00 | 77 | 1018.9 |
| 20260901135500 | 64 | 187 | 1.7 | 4.3 | 0.00 | 0.00 | 0.00 | 78 | 1018.8 |
| 20260901134959 | 64 | 186 | 1.7 | 4.3 | 0.00 | 0.00 | 0.00 | 78 | 1018.8 |
| 20260901134228 | 64 | 188 | 2.6 | 4.3 | 0.00 | 0.00 | 0.00 | 80 | 1018.8 |
| 20260901133728 | 64 | 175 | 2.6 | 4.3 | 0.00 | 0.00 | 0.00 | 81 | 1018.8 |
| 20260901133227 | 63 | 186 | 2.6 | 4.3 | 0.00 | 0.00 | 0.00 | 82 | 1018.7 |
| 20260901132728 | 63 | 171 | 1.7 | 4.3 | 0.00 | 0.00 | 0.00 | 82 | 1018.7 |
| 20260901132227 | 62 | 171 | 1.7 | 4.3 | 0.00 | 0.00 | 0.00 | 82 | 1018.7 |
| 20260901131727 | 62 | 173 | 1.7 | 4.3 | 0.00 | 0.00 | 0.00 | 82 | 1018.7 |
| 20260901131227 | 62 | 189 | 1.7 | 3.5 | 0.00 | 0.00 | 0.00 | 83 | 1018.6 |
| 20260901130959 | 62 | 174 | 1.7 | 4.3 | 0.00 | 0.00 | 0.00 | 83 | 1018.7 |
| 20260901130224 | 62 | 174 | 1.7 | 4.3 | 0.00 | 0.00 | 0.00 | 83 | 1018.6 |
| 20260901125957 | 62 | 183 | 2.6 | 4.3 | 0.00 | 0.00 | 0.00 | 83 | 1018.7 |
| 20260901125226 | 61 | 184 | 1.7 | 4.3 | 0.00 | 0.00 | 0.00 | 84 | 1018.8 |
| 20260901124724 | 61 | 155 | 0.9 | 3.5 | 0.00 | 0.00 | 0.00 | 84 | 1018.7 |
| 20260901124225 | 61 | 141 | 0.9 | 3.5 | 0.00 | 0.00 | 0.00 | 84 | 1018.4 |
| 20260901123723 | 61 | 161 | 0.9 | 3.5 | 0.00 | 0.00 | 0.00 | 84 | 1018.4 |
| 20260901123223 | 60 | 161 | 1.7 | 3.5 | 0.00 | 0.00 | 0.00 | 85 | 1018.5 |
| 20260901122721 | 60 | 166 | 0.9 | 3.5 | 0.00 | 0.00 | 0.00 | 86 | 1018.5 |
| 20260901122222 | 60 | 165 | 0.9 | 3.5 | 0.00 | 0.00 | 0.00 | 86 | 1018.5 |
| 20260901121722 | 60 | 166 | 0.9 | 3.5 | 0.00 | 0.00 | 0.00 | 87 | 1018.4 |
| 20260901121220 | 59 | 166 | 0.9 | 2.6 | 0.00 | 0.00 | 0.00 | 88 | 1018.4 |
| 20260901120721 | 59 | 119 | 0.0 | 2.6 | 0.00 | 0.00 | 0.00 | 88 | 1018.3 |
| 20260901120219 | 58 | 254 | 0.0 | 0.9 | 0.00 | 0.00 | 0.00 | 88 | 1018.3 |
| 20260901115718 | 58 | 255 | 0.0 | 0.0 | 0.00 | 0.00 | 0.00 | 88 | 1018.2 |
| 20260901115449 | 58 | 255 | 0.0 | 0.0 | 0.00 | 0.00 | 0.00 | 89 | 1018.2 |
| 20260901114719 | 57 | 255 | 0.0 | 0.9 | 0.00 | 0.00 | 0.00 | 89 | 1018.2 |
| 20260901114218 | 57 | 256 | 0.0 | 0.9 | 0.00 | 0.00 | 0.00 | 89 | 1018.2 |
| 20260901113718 | 57 | 256 | 0.0 | 0.9 | 0.00 | 0.00 | 0.00 | 89 | 1018.2 |
| 20260901113219 | 56 | 256 | 0.0 | 0.9 | 0.00 | 0.00 | 0.00 | 89 | 1018.2 |
| 20260901112718 | 56 | 256 | 0.0 | 1.7 | 0.00 | 0.00 | 0.00 | 90 | 1018.2 |
| 20260901112220 | 56 | 256 | 0.0 | 1.7 | 0.00 | 0.00 | 0.00 | 90 | 1018.1 |
| 20260901111719 | 56 | 256 | 0.0 | 1.7 | 0.00 | 0.00 | 0.00 | 90 | 1018.0 |
| 20260901111219 | 55 | 256 | 0.0 | 1.7 | 0.00 | 0.00 | 0.00 | 90 | 1018.0 |
| 20260901110951 | 55 | 256 | 0.0 | 0.0 | 0.00 | 0.00 | 0.00 | 90 | 1018.0 |
| 20260901110220 | 54 | 256 | 0.0 | 0.0 | 0.00 | 0.00 | 0.00 | 90 | 1018.1 |
| 20260901105720 | 54 | 256 | 0.0 | 0.0 | 0.00 | 0.00 | 0.00 | 90 | 1018.1 |
| 20260901105451 | 53 | 256 | 0.0 | 0.0 | 0.00 | 0.01 | 0.00 | 90 | 1017.9 |
| 20260901104718 | 53 | 256 | 0.0 | 0.0 | 0.00 | 0.01 | 0.00 | 90 | 1017.8 |
| 20260901104220 | 53 | 256 | 0.0 | 0.0 | 0.00 | 0.01 | 0.00 | 90 | 1017.8 |
| 20260901103718 | 53 | 256 | 0.0 | 0.0 | 0.00 | 0.01 | 0.00 | 90 | 1017.8 |
| 20260901103219 | 53 | 256 | 0.0 | 0.0 | 0.00 | 0.01 | 0.00 | 89 | 1017.9 |
| 20260901102720 | 53 | 256 | 0.0 | 0.0 | 0.00 | 0.01 | 0.00 | 89 | 1017.8 |
| 20260901102220 | 53 | 256 | 0.0 | 0.0 | 0.00 | 0.01 | 0.00 | 89 | 1017.7 |
| 20260901101720 | 52 | 256 | 0.0 | 0.0 | 0.00 | 0.01 | 0.00 | 89 | 1017.6 |
| 20260901101221 | 52 | 256 | 0.0 | 0.0 | 0.00 | 0.01 | 0.00 | 89 | 1017.7 |
| 20260901100718 | 52 | 256 | 0.0 | 0.0 | 0.00 | 0.01 | 0.00 | 89 | 1017.7 |
| 20260901100219 | 52 | 256 | 0.0 | 0.0 | 0.00 | 0.01 | 0.00 | 89 | 1017.8 |
| 20260901095718 | 52 | 256 | 0.0 | 0.0 | 0.00 | 0.01 | 0.00 | 89 | 1017.8 |
| 20260901095450 | 52 | 256 | 0.0 | 0.0 | 0.00 | 0.01 | 0.00 | 89 | 1017.7 |
| 20260901094718 | 52 | 256 | 0.0 | 0.0 | 0.00 | 0.01 | 0.00 | 89 | 1017.8 |
| 20260901094219 | 51 | 256 | 0.0 | 0.0 | 0.00 | 0.01 | 0.00 | 89 | 1017.7 |
| 20260901093717 | 51 | 256 | 0.0 | 0.0 | 0.00 | 0.01 | 0.00 | 88 | 1017.7 |
| 20260901093217 | 51 | 256 | 0.0 | 0.0 | 0.00 | 0.01 | 0.00 | 88 | 1017.7 |
| 20260901092716 | 51 | 256 | 0.0 | 0.0 | 0.00 | 0.01 | 0.00 | 89 | 1017.7 |
| 20260901092216 | 51 | 256 | 0.0 | 0.0 | 0.00 | 0.01 | 0.00 | 89 | 1017.8 |
| 20260901091712 | 51 | 256 | 0.0 | 0.0 | 0.00 | 0.01 | 0.00 | 88 | 1017.8 |
| 20260901091212 | 51 | 256 | 0.0 | 0.0 | 0.00 | 0.01 | 0.00 | 88 | 1017.7 |
| 20260901090946 | 51 | 256 | 0.0 | 0.0 | 0.00 | 0.01 | 0.00 | 87 | 1017.7 |
| 20260901090211 | 51 | 256 | 0.0 | 0.0 | 0.00 | 0.01 | 0.00 | 87 | 1017.8 |
| 20260901085712 | 52 | 256 | 0.0 | 0.0 | 0.00 | 0.01 | 0.00 | 87 | 1017.8 |
| 20260901084711 | 52 | 256 | 0.0 | 0.0 | 0.00 | 0.01 | 0.00 | 87 | 1017.7 |
| 20260901084210 | 52 | 256 | 0.0 | 0.0 | 0.00 | 0.01 | 0.00 | 87 | 1017.7 |
| 20260901083710 | 52 | 256 | 0.0 | 0.0 | 0.00 | 0.01 | 0.00 | 87 | 1017.8 |
| 20260901083211 | 52 | 256 | 0.0 | 0.0 | 0.00 | 0.01 | 0.00 | 87 | 1017.7 |
| 20260901082710 | 52 | 256 | 0.0 | 0.0 | 0.00 | 0.01 | 0.00 | 87 | 1017.7 |
| 20260901082210 | 52 | 256 | 0.0 | 0.0 | 0.00 | 0.01 | 0.00 | 87 | 1017.7 |
| 20260901081713 | 51 | 256 | 0.0 | 0.0 | 0.00 | 0.01 | 0.00 | 86 | 1017.6 |
| 20260901081709 | 51 | 256 | 0.0 | 0.0 | 0.00 | 0.01 | 0.00 | 87 | 1017.7 |
| 20260901080708 | 51 | 256 | 0.0 | 0.0 | 0.00 | 0.01 | 0.00 | 86 | 1017.8 |
| 20260901080207 | 52 | 256 | 0.0 | 0.0 | 0.00 | 0.01 | 0.00 | 86 | 1017.9 |
| 20260901075708 | 52 | 256 | 0.0 | 0.0 | 0.00 | 0.01 | 0.00 | 86 | 1017.9 |
| 20260901075210 | 52 | 256 | 0.0 | 0.0 | 0.00 | 0.01 | 0.00 | 86 | 1017.9 |
| 20260901074706 | 52 | 256 | 0.0 | 0.0 | 0.00 | 0.01 | 0.00 | 85 | 1017.8 |
| 20260901074206 | 52 | 256 | 0.0 | 0.0 | 0.00 | 0.01 | 0.00 | 85 | 1017.8 |
| 20260901073706 | 52 | 256 | 0.0 | 0.0 | 0.00 | 0.01 | 0.00 | 85 | 1017.8 |
| 20260901073205 | 53 | 256 | 0.0 | 0.0 | 0.00 | 0.01 | 0.00 | 84 | 1017.7 |
| 20260901072700 | 53 | 256 | 0.0 | 0.0 | 0.00 | 0.01 | 0.00 | 84 | 1017.7 |
| 20260901072200 | 53 | 256 | 0.0 | 0.0 | 0.00 | 0.01 | 0.00 | 84 | 1017.7 |
| 20260901071657 | 53 | 256 | 0.0 | 0.0 | 0.00 | 0.01 | 0.00 | 84 | 1017.8 |
| 20260901071433 | 53 | 256 | 0.0 | 1.7 | 0.00 | 0.01 | 0.00 | 84 | 1017.8 |
| 20260901070156 | 53 | 256 | 0.0 | 1.7 | 0.00 | 0.01 | 0.00 | 83 | 1017.8 |
| 20260901065656 | 53 | 256 | 0.9 | 1.7 | 0.00 | 0.01 | 0.00 | 83 | 1017.8 |
| 20260901065427 | 53 | 256 | 0.0 | 1.7 | 0.00 | 0.01 | 0.00 | 83 | 1017.9 |
| 20260901064656 | 53 | 256 | 0.0 | 0.0 | 0.00 | 0.01 | 0.00 | 82 | 1018.0 |
| 20260901064426 | 53 | 256 | 0.0 | 0.0 | 0.00 | 0.01 | 0.00 | 82 | 1018.0 |
| 20260901063652 | 54 | 256 | 0.0 | 0.0 | 0.00 | 0.01 | 0.00 | 81 | 1018.0 |
| 20260901063152 | 54 | 256 | 0.0 | 0.0 | 0.00 | 0.01 | 0.00 | 81 | 1017.9 |
| 20260901062654 | 54 | 256 | 0.0 | 2.6 | 0.00 | 0.01 | 0.00 | 81 | 1017.9 |
| 20260901062153 | 54 | 256 | 0.0 | 2.6 | 0.00 | 0.01 | 0.00 | 82 | 1017.9 |
| 20260901061654 | 53 | 256 | 0.0 | 2.6 | 0.00 | 0.01 | 0.00 | 82 | 1017.8 |
| 20260901061152 | 53 | 256 | 0.0 | 2.6 | 0.00 | 0.01 | 0.00 | 82 | 1017.6 |
| 20260901060925 | 53 | 255 | 0.0 | 1.7 | 0.00 | 0.01 | 0.00 | 82 | 1017.7 |